• In Netherlands
  • List of Countries
  • For 7 days
  • Water Temperature
  • Satellite Maps
  • Weather Map
  • Weather Widgets
  • user-avatar
    Login

    Hourly Weather Baraki Barak

    Today, 22 November, Wednesday

    Time Temperature Precipitation Wind Pressure Humidity
    00:00 +3°C° 0 mm 1 mps 595 mmHg 21%
    01:00 +3°C° 0 mm 1 mps 595 mmHg 21%
    02:00 +3°C° 0 mm 1 mps 594 mmHg 21%
    03:00 +2°C° 0 mm 1 mps 594 mmHg 21%
    04:00 +2°C° 0 mm 1 mps 594 mmHg 20%
    05:00 +2°C° 0 mm 1 mps 594 mmHg 22%
    06:00 +2°C° 0 mm 1 mps 594 mmHg 22%
    07:00 +3°C° 0 mm 1 mps 595 mmHg 21%
    08:00 +3°C° 0 mm 1 mps 595 mmHg 21%
    09:00 +5°C° 0 mm 1 mps 596 mmHg 18%
    10:00 +7°C° 0 mm 1 mps 597 mmHg 16%
    11:00 +9°C° 0 mm 0 mps 598 mmHg 13%
    12:00 +10°C° 0 mm 1 mps 597 mmHg 13%
    13:00 +11°C° 0 mm 1 mps 597 mmHg 13%
    14:00 +12°C° 0 mm 1 mps 597 mmHg 14%
    15:00 +10°C° 0 mm 1 mps 597 mmHg 16%
    16:00 +9°C° 0 mm 1 mps 596 mmHg 19%
    17:00 +8°C° 0 mm 1 mps 595 mmHg 22%
    18:00 +7°C° 0 mm 1 mps 595 mmHg 22%
    19:00 +6°C° 0 mm 1 mps 595 mmHg 23%
    20:00 +5°C° 0 mm 1 mps 595 mmHg 23%
    21:00 +5°C° 0 mm 1 mps 595 mmHg 24%
    22:00 +4°C° 0 mm 0 mps 595 mmHg 24%
    23:00 +4°C° 0 mm 0 mps 595 mmHg 25%

    Tomorrow, 23 November, Thursday

    Time Temperature Precipitation Wind Pressure Humidity
    00:00 +4°C° 0 mm 0 mps 595 mmHg 25%
    01:00 +4°C° 0 mm 0 mps 595 mmHg 25%
    02:00 +4°C° 0 mm 0 mps 594 mmHg 25%
    03:00 +3°C° 0 mm 0 mps 594 mmHg 25%
    04:00 +3°C° 0 mm 0 mps 594 mmHg 24%
    05:00 +3°C° 0 mm 0 mps 594 mmHg 24%
    06:00 +4°C° 0 mm 0 mps 594 mmHg 24%
    07:00 +4°C° 0 mm 0 mps 595 mmHg 24%
    08:00 +4°C° 0 mm 0 mps 595 mmHg 24%
    09:00 +6°C° 0 mm 0 mps 596 mmHg 22%
    10:00 +8°C° 0 mm 1 mps 596 mmHg 19%
    11:00 +10°C° 0 mm 1 mps 597 mmHg 17%
    12:00 +10°C° 0 mm 1 mps 597 mmHg 19%
    13:00 +11°C° 0 mm 1 mps 597 mmHg 20%
    14:00 +11°C° 0 mm 1 mps 597 mmHg 21%
    15:00 +11°C° 0 mm 1 mps 596 mmHg 25%
    16:00 +10°C° 0 mm 1 mps 596 mmHg 28%
    17:00 +9°C° 0 mm 1 mps 596 mmHg 31%
    18:00 +8°C° 0 mm 1 mps 596 mmHg 32%
    19:00 +7°C° 0 mm 1 mps 596 mmHg 33%
    20:00 +6°C° 0 mm 0 mps 596 mmHg 34%
    21:00 +5°C° 0 mm 0 mps 596 mmHg 35%
    22:00 +5°C° 0 mm 0 mps 596 mmHg 36%
    23:00 +5°C° 0 mm 0 mps 596 mmHg 37%

    Day after tomorrow, 24 November, Friday

    Time Temperature Precipitation Wind Pressure Humidity
    00:00 +4°C° 0 mm 0 mps 595 mmHg 38%
    01:00 +4°C° 0 mm 0 mps 595 mmHg 40%
    02:00 +5°C° 0 mm 1 mps 595 mmHg 41%
    03:00 +4°C° 0 mm 0 mps 595 mmHg 42%
    04:00 +3°C° 0 mm 0 mps 594 mmHg 44%
    05:00 +3°C° 0 mm 0 mps 594 mmHg 45%
    06:00 +4°C° 0 mm 0 mps 595 mmHg 45%
    07:00 +4°C° 0 mm 0 mps 595 mmHg 45%
    08:00 +4°C° 0 mm 0 mps 596 mmHg 45%
    09:00 +7°C° 0 mm 1 mps 596 mmHg 40%
    10:00 +9°C° 0 mm 1 mps 597 mmHg 35%
    11:00 +11°C° 0 mm 1 mps 598 mmHg 31%
    12:00 +11°C° 0 mm 1 mps 598 mmHg 29%
    13:00 +12°C° 0 mm 1 mps 598 mmHg 28%
    14:00 +13°C° 0 mm 2 mps 598 mmHg 27%
    15:00 +12°C° 0 mm 2 mps 598 mmHg 28%
    16:00 +11°C° 0 mm 1 mps 597 mmHg 29%
    17:00 +11°C° 0 mm 1 mps 597 mmHg 31%
    18:00 +10°C° 0 mm 1 mps 597 mmHg 32%
    19:00 +10°C° 0 mm 1 mps 597 mmHg 33%
    20:00 +9°C° 0 mm 1 mps 598 mmHg 34%
    21:00 +8°C° 0 mm 1 mps 597 mmHg 35%
    22:00 +7°C° 0 mm 1 mps 597 mmHg 36%
    23:00 +7°C° 0 mm 1 mps 597 mmHg 37%

    25 November, Saturday

    Time Temperature Precipitation Wind Pressure Humidity
    00:00 +6°C° 0 mm 1 mps 596 mmHg 38%
    01:00 +6°C° 0 mm 1 mps 596 mmHg 38%
    02:00 +6°C° 0 mm 1 mps 596 mmHg 39%
    03:00 +5°C° 0 mm 1 mps 595 mmHg 40%
    04:00 +5°C° 0 mm 1 mps 595 mmHg 41%
    05:00 +5°C° 0 mm 1 mps 595 mmHg 42%
    06:00 +5°C° 0 mm 1 mps 595 mmHg 42%
    07:00 +4°C° 0 mm 0 mps 596 mmHg 42%
    08:00 +5°C° 0 mm 0 mps 596 mmHg 42%
    09:00 +7°C° 0 mm 1 mps 597 mmHg 39%
    10:00 +9°C° 0 mm 1 mps 598 mmHg 35%
    11:00 +11°C° 0 mm 1 mps 598 mmHg 32%
    12:00 +9°C° 0.3 mm 2 mps 598 mmHg 38%
    13:00 +9°C° 0.3 mm 2 mps 597 mmHg 43%
    14:00 +9°C° 0.3 mm 3 mps 596 mmHg 49%
    15:00 +8°C° 0.8 mm 2 mps 596 mmHg 57%
    16:00 +7°C° 0.8 mm 2 mps 596 mmHg 64%
    17:00 +7°C° 0.8 mm 1 mps 596 mmHg 72%
    18:00 +7°C° 0.1 mm 1 mps 596 mmHg 73%
    19:00 +6°C° 0.1 mm 1 mps 596 mmHg 75%
    20:00 +6°C° 0.1 mm 1 mps 597 mmHg 77%
    21:00 +6°C° 0 mm 1 mps 597 mmHg 78%
    22:00 +5°C° 0 mm 1 mps 597 mmHg 80%
    23:00 +5°C° 0 mm 1 mps 597 mmHg 81%

    26 November, Sunday

    Time Temperature Precipitation Wind Pressure Humidity
    00:00 +4°C° 0 mm 1 mps 596 mmHg 82%
    01:00 +4°C° 0 mm 1 mps 596 mmHg 83%
    02:00 +4°C° 0 mm 1 mps 596 mmHg 84%
    03:00 +3°C° 0 mm 1 mps 596 mmHg 84%
    04:00 +3°C° 0 mm 1 mps 596 mmHg 84%
    05:00 +3°C° 0 mm 1 mps 596 mmHg 83%
    06:00 +3°C° 0 mm 1 mps 597 mmHg 81%
    07:00 +3°C° 0 mm 1 mps 597 mmHg 78%
    08:00 +4°C° 0 mm 1 mps 598 mmHg 75%
    09:00 +5°C° 0 mm 1 mps 598 mmHg 68%
    10:00 +7°C° 0 mm 1 mps 599 mmHg 61%
    11:00 +8°C° 0 mm 1 mps 600 mmHg 54%
    12:00 +9°C° 0 mm 1 mps 599 mmHg 50%
    13:00 +10°C° 0 mm 1 mps 599 mmHg 46%
    14:00 +10°C° 0 mm 1 mps 599 mmHg 42%
    15:00 +9°C° 0 mm 1 mps 599 mmHg 45%
    16:00 +9°C° 0 mm 1 mps 598 mmHg 47%
    17:00 +8°C° 0 mm 1 mps 598 mmHg 49%
    18:00 +7°C° 0 mm 1 mps 598 mmHg 51%
    19:00 +7°C° 0 mm 1 mps 598 mmHg 53%
    20:00 +6°C° 0 mm 1 mps 598 mmHg 55%
    21:00 +6°C° 0 mm 1 mps 598 mmHg 55%
    22:00 +5°C° 0 mm 1 mps 598 mmHg 55%
    23:00 +5°C° 0 mm 1 mps 598 mmHg 55%

    27 November, Monday

    Time Temperature Precipitation Wind Pressure Humidity
    00:00 +5°C° 0 mm 1 mps 597 mmHg 54%
    01:00 +5°C° 0 mm 1 mps 597 mmHg 54%
    02:00 +4°C° 0 mm 1 mps 597 mmHg 54%
    03:00 +4°C° 0 mm 1 mps 596 mmHg 54%
    04:00 +4°C° 0 mm 1 mps 596 mmHg 54%
    05:00 +4°C° 0 mm 1 mps 596 mmHg 54%
    06:00 +3°C° 0 mm 2 mps 596 mmHg 53%
    07:00 +3°C° 0 mm 2 mps 597 mmHg 52%
    08:00 +3°C° 0 mm 2 mps 597 mmHg 50%
    09:00 +5°C° 0 mm 2 mps 597 mmHg 45%
    10:00 +7°C° 0 mm 2 mps 598 mmHg 39%
    11:00 +8°C° 0 mm 2 mps 598 mmHg 33%
    12:00 +9°C° 0 mm 2 mps 598 mmHg 31%
    13:00 +10°C° 0 mm 2 mps 598 mmHg 28%
    14:00 +10°C° 0 mm 2 mps 597 mmHg 26%
    15:00 +9°C° 0 mm 2 mps 597 mmHg 29%
    16:00 +9°C° 0 mm 2 mps 596 mmHg 32%
    17:00 +8°C° 0 mm 2 mps 596 mmHg 35%
    18:00 +7°C° 0 mm 2 mps 596 mmHg 37%
    19:00 +7°C° 0 mm 2 mps 596 mmHg 39%
    20:00 +6°C° 0 mm 2 mps 596 mmHg 41%
    21:00 +6°C° 0 mm 2 mps 596 mmHg 42%
    22:00 +5°C° 0 mm 2 mps 596 mmHg 43%
    23:00 +5°C° 0 mm 2 mps 596 mmHg 43%
    Show more